Location: Unspecified
(0.0000°N, 0.0000°E)
Time: 00:09:19
(UTC+00:00)

DMSP 5D-2 F11 DEB - Visible Passes

Search period start: 18 May 2026 00:00
Search period end: 28 May 2026 00:00
Orbit: 739 x 909 km, 98.9° (Epoch: 17 May)

Date Brightness Start Highest point End Pass type
(mag) Time Alt. Az. Time Alt. Az. Time Alt. Az.
18 May ? 19:16:00 10° SSW 19:20:25 32° WSW 19:24:47 10° NW visible
19 May ? 18:55:59 10° S 19:00:51 58° WSW 19:05:41 10° NNW visible
20 May ? 18:36:20 10° SSE 18:41:17 78° ENE 18:46:11 10° N visible
21 May ? 18:17:02 10° SSE 18:21:43 43° ENE 18:26:20 10° N visible
22 May ? 19:38:47 10° SW 19:42:02 18° WSW 19:45:15 10° WNW visible
23 May ? 19:18:09 10° SSW 19:22:28 31° WSW 19:26:46 10° NW visible
24 May ? 18:58:05 10° S 19:02:54 55° WSW 19:07:42 10° NNW visible
25 May ? 18:38:23 10° SSE 18:43:19 82° ENE 18:48:15 10° N visible
26 May ? 18:19:02 10° SSE 18:23:44 45° ENE 18:28:26 10° N visible
27 May ? 05:23:40 10° E 05:24:09 10° ESE 05:24:38 10° ESE visible
27 May ? 19:40:59 10° SW 19:44:03 17° WSW 19:47:09 10° WNW visible
